SCP
0 0 0 0 0 0 0 0 0 0 0 0 0 0 0 0 0 -0 -0 -0 -0 -0
0 0 0 0 0 0 0 0 0 0 0 0 0 0 0 0 0 0 0 0 0 0
0 0 0 0 0 0 0 0 0 0 0 0 0 0 0 0 0 0 0 0 0 0
0 0 0 0 0 0 0 0 0 0 0 0 0 0 0 0 0 0 0 0 0 0
0 0 0 0 0 0 0 0 0 0 0 0 0 0 0 0 0 0 0 0 0 0
0 0 0 0 0 0 0 0 0 0 0 0 0 0 0 0 0 0 0 0 0 0
0 0 0 0 0 0 0 0 0 0 0 0 0 0 0 0 0 0 0 0 0 0
0 0 0 0 0 0 0 0 0 0 0 0 0 0 0 0 0 0 0 0 0 0
0 0 0 0 0 0 0 0 0 0 0 0 0 0 0 0 0 0 0 0 0 0
0 0 0 0 0 0 0 0 0 0 0 0 0 0 0 0 0 0 0 0 0 0
0 0 0 0 0 0 0 0 0 0 0 0 0 0 0 0 0 0 0 0 0 0
0 0 0 0 0 0 0 0 0 0 0 0 0 0 0 0 0 0 0 0 0 0
0 0 0 0 0 0 0 0 0 0 0 0 0 0 0 0 0 0 0 0 0 0
0 0 0 0 0 0 0 0 0 0 0 0 0 0 0 0 0 0 0 0 0 0
Wind_Speed_500mb
45 43 40 36 32 27 22 17 14 18 22 27 30 32 33 32 32 33 35 36 37 39
43 41 38 34 30 27 23 20 20 23 28 32 34 35 36 37 38 41 42 44 44 44
40 38 35 31 28 26 24 25 27 31 34 35 37 39 42 45 45 46 46 46 46 47
37 34 32 30 28 28 30 31 33 36 38 40 42 45 47 49 49 49 47 46 47 48
35 34 32 32 32 33 34 37 39 41 43 45 48 49 49 48 47 47 48 48 48 50
33 32 33 33 35 37 40 41 43 45 48 51 52 49 48 48 48 49 49 50 50 50
35 35 36 38 41 44 46 48 50 52 54 55 50 49 49 49 50 50 51 50 50 49
37 40 44 46 48 50 52 54 55 56 54 52 51 51 49 46 47 48 49 50 50 49
48 51 54 56 56 56 56 57 57 56 55 57 55 51 41 42 49 55 56 57 57 58
60 63 65 63 61 60 62 62 61 61 60 61 60 52 47 47 51 57 61 64 62 60
70 73 70 68 68 67 66 67 67 68 67 66 65 52 49 49 53 60 64 67 68 68
72 73 74 77 77 75 74 73 71 71 71 69 68 58 50 50 56 64 68 68 68 66
70 74 76 76 77 76 76 76 73 74 72 71 65 55 51 51 58 64 65 64 65 61
68 69 71 72 74 76 75 74 75 76 76 75 72 69 59 56 59 65 65 65 64 67
Wind_Direction_500mb
195 192 197 198 200 202 209 227 258 284 296 300 302 302 302 301 299 295 292 288 284 280
201 202 205 207 209 215 225 243 263 280 288 291 291 293 292 291 290 287 284 282 279 277
207 210 214 216 221 231 245 257 270 278 282 284 285 287 287 288 286 282 280 278 276 274
214 217 223 231 241 251 261 270 276 279 281 283 284 284 282 281 279 276 275 275 276 276
223 228 236 245 254 262 269 274 276 279 281 281 282 279 276 274 273 273 274 276 275 276
235 245 254 261 266 271 274 275 278 281 281 280 277 275 274 274 275 274 274 274 273 274
252 258 263 268 271 273 276 278 281 281 279 278 277 276 276 275 275 275 274 273 272 271
264 267 270 270 271 272 275 279 281 280 281 277 277 277 278 278 277 275 273 272 270 270
271 271 272 273 273 275 277 278 276 275 276 276 276 276 266 266 271 277 279 278 276 275
270 270 271 273 275 277 277 276 274 274 273 273 274 272 266 266 266 269 272 275 277 276
273 273 274 274 275 276 277 277 276 275 274 273 273 268 266 266 267 268 269 271 274 274
277 277 275 273 274 276 279 278 275 275 274 273 273 270 263 264 264 266 268 269 271 274
279 276 274 273 273 275 275 273 272 272 271 272 272 269 262 263 265 267 268 269 269 269
274 274 273 273 272 272 272 271 270 270 270 269 269 268 263 261 261 263 267 267 269 271
Wind_Speed_850mb
45 43 40 36 32 27 22 17 14 18 22 27 30 32 33 32 32 33 35 36 37 39
43 41 38 34 30 27 23 20 20 23 28 32 34 35 36 37 38 41 42 44 44 44
40 38 35 31 28 26 24 25 27 31 34 35 37 39 42 45 45 46 46 46 46 47
37 34 32 30 28 28 30 31 33 36 38 40 42 45 47 49 49 49 47 46 47 48
35 34 32 32 32 33 34 37 39 41 43 45 48 49 49 48 47 47 48 48 48 50
33 32 33 33 35 37 40 41 43 45 48 51 52 49 48 48 48 49 49 50 50 50
35 35 36 38 41 44 46 48 50 52 54 55 50 49 49 49 50 50 51 50 50 49
37 40 44 46 48 50 52 54 55 56 54 52 51 51 49 46 47 48 49 50 50 49
48 51 54 56 56 56 56 57 57 56 55 57 55 51 41 42 49 55 56 57 57 58
60 63 65 63 61 60 62 62 61 61 60 61 60 52 47 47 51 57 61 64 62 60
70 73 70 68 68 67 66 67 67 68 67 66 65 52 49 49 53 60 64 67 68 68
72 73 74 77 77 75 74 73 71 71 71 69 68 58 50 50 56 64 68 68 68 66
70 74 76 76 77 76 76 76 73 74 72 71 65 55 51 51 58 64 65 64 65 61
68 69 71 72 74 76 75 74 75 76 76 75 72 69 59 56 59 65 65 65 64 67
Wind_Direction_850mb
195 192 197 198 200 202 209 227 258 284 296 300 302 302 302 301 299 295 292 288 284 280
201 202 205 207 209 215 225 243 263 280 288 291 291 293 292 291 290 287 284 282 279 277
207 210 214 216 221 231 245 257 270 278 282 284 285 287 287 288 286 282 280 278 276 274
214 217 223 231 241 251 261 270 276 279 281 283 284 284 282 281 279 276 275 275 276 276
223 228 236 245 254 262 269 274 276 279 281 281 282 279 276 274 273 273 274 276 275 276
235 245 254 261 266 271 274 275 278 281 281 280 277 275 274 274 275 274 274 274 273 274
252 258 263 268 271 273 276 278 281 281 279 278 277 276 276 275 275 275 274 273 272 271
264 267 270 270 271 272 275 279 281 280 281 277 277 277 278 278 277 275 273 272 270 270
271 271 272 273 273 275 277 278 276 275 276 276 276 276 266 266 271 277 279 278 276 275
270 270 271 273 275 277 277 276 274 274 273 273 274 272 266 266 266 269 272 275 277 276
273 273 274 274 275 276 277 277 276 275 274 273 273 268 266 266 267 268 269 271 274 274
277 277 275 273 274 276 279 278 275 275 274 273 273 270 263 264 264 266 268 269 271 274
279 276 274 273 273 275 275 273 272 272 271 272 272 269 262 263 265 267 268 269 269 269
274 274 273 273 272 272 272 271 270 270 270 269 269 268 263 261 261 263 267 267 269 271